Orbital Elements at Epoch 2459000.5 (2020-May-31.0) TDB
Reference: JPL 14 (heliocentric ecliptic J2000)
Element | Value | Uncertainty (1-sigma) | Units |
e | .1461964577905946 | 1.2707e-07 | |
a | 2.919156016974697 | 2.7408e-08 | au |
q | 2.492385747554895 | 3.7366e-07 | au |
i | 6.958718579076514 | 9.7823e-06 | deg |
node | 345.7010801526571 | 4.3961e-05 | deg |
peri | 203.0555321033324 | 4.87e-05 | deg |
M | 286.7919094505001 | 2.3803e-05 | deg |
tp | 2459370.959695932581 (2021-Jun-05.45969593) | 0.00012323 | TDB |
period | 1821.731580958986 4.99 | 2.5656e-05 7.024e-08 | d yr |
n | .1976141840887946 | 2.7831e-09 | deg/d |
Q | 3.345926286394498 | 3.1415e-08 | au |
|
| | Orbit Determination Parameters
Additional Information
|